Location: East Horndon
(51.5667°N, 0.3500°E)
Time: 23:16:18
(UTC+00:00)

CZ-4 R/B - Visible Passes

Search period start: 15 February 2026 00:00
Search period end: 25 February 2026 00:00
Orbit: 676 x 743 km, 98.7° (Epoch: 14 February)

Date Brightness Start Highest point End Pass type
(mag) Time Alt. Az. Time Alt. Az. Time Alt. Az.
15 Feb 5.8 04:38:07 10° NNE 04:42:29 30° E 04:46:49 10° SSE visible
15 Feb 4.2 06:15:43 10° N 06:20:29 46° WNW 06:25:12 10° SW visible
16 Feb 7.1 03:47:33 10° ENE 03:48:50 11° E 03:50:07 10° E visible
16 Feb 4.3 05:22:36 10° NNE 05:27:36 69° ESE 05:32:31 10° S visible
17 Feb 6.1 04:30:10 10° NE 04:34:18 26° E 04:38:24 10° SSE visible
17 Feb 4.1 06:07:33 10° N 06:12:25 53° WNW 06:17:14 10° SW visible
18 Feb 4.6 05:14:31 10° NNE 05:19:28 58° ESE 05:24:21 10° S visible
18 Feb 7.6 18:09:20 10° W 18:10:08 10° W 18:10:57 10° WNW visible
19 Feb 6.4 04:22:16 10° NE 04:26:07 22° E 04:29:54 10° SE visible
19 Feb 3.9 05:59:24 10° N 06:04:21 62° WNW 06:09:14 10° SSW visible
20 Feb 4.9 05:06:28 10° NNE 05:11:20 49° E 05:16:07 10° S visible
20 Feb 7.3 17:59:47 10° WSW 18:01:53 13° W 18:03:59 10° WNW visible
21 Feb 6.6 04:14:25 10° NE 04:17:54 19° E 04:21:20 10° SE visible
21 Feb 3.9 05:51:17 10° NNE 05:56:16 73° WNW 06:01:11 10° SSW visible
22 Feb 5.2 04:58:26 10° NNE 05:03:10 42° E 05:07:50 10° S visible
23 Feb 6.8 04:06:38 10° NE 04:09:40 16° E 04:12:39 10° SE visible
23 Feb 3.9 05:43:09 10° NNE 05:48:09 85° WNW 05:53:05 10° SSW visible
24 Feb 5.5 04:50:25 10° NNE 04:55:00 36° E 04:59:31 10° SSE visible
